• In Austria
  • List of Countries
  • For 7 days
  • Water Temperature
  • Satellite Maps
  • Weather Map
  • News
  • Weather Widgets
  • user-avatar
    Login

    Hourly Weather Kalgoorlie

    Today, 17 August, Friday

    Time Temperature Precipitation Wind Pressure Humidity
    00:00 +11°C° 0 mm 4 mps 731 mmHg 68%
    01:00 +10°C° 0 mm 4 mps 731 mmHg 71%
    02:00 +10°C° 0 mm 4 mps 731 mmHg 76%
    03:00 +10°C° 0 mm 4 mps 731 mmHg 79%
    04:00 +8°C° 0 mm 4 mps 731 mmHg 82%
    05:00 +8°C° 0 mm 4 mps 731 mmHg 86%
    06:00 +9°C° 0 mm 5 mps 731 mmHg 83%
    07:00 +9°C° 0 mm 5 mps 732 mmHg 81%
    08:00 +10°C° 0 mm 6 mps 732 mmHg 78%
    09:00 +11°C° 0 mm 6 mps 732 mmHg 70%
    10:00 +14°C° 0 mm 6 mps 732 mmHg 61%
    11:00 +16°C° 0 mm 6 mps 732 mmHg 53%
    12:00 +16°C° 0 mm 5 mps 732 mmHg 49%
    13:00 +17°C° 0 mm 5 mps 732 mmHg 45%
    14:00 +19°C° 0 mm 5 mps 732 mmHg 41%
    15:00 +17°C° 0 mm 5 mps 732 mmHg 41%
    16:00 +17°C° 0 mm 5 mps 732 mmHg 40%
    17:00 +17°C° 0 mm 4 mps 733 mmHg 39%
    18:00 +15°C° 0 mm 5 mps 733 mmHg 43%
    19:00 +14°C° 0 mm 5 mps 734 mmHg 47%
    20:00 +12°C° 0 mm 5 mps 734 mmHg 51%
    21:00 +10°C° 0 mm 5 mps 735 mmHg 55%
    22:00 +9°C° 0 mm 5 mps 735 mmHg 59%
    23:00 +9°C° 0 mm 5 mps 736 mmHg 62%

    Tomorrow, 18 August, Saturday

    Time Temperature Precipitation Wind Pressure Humidity
    00:00 +8°C° 0 mm 5 mps 736 mmHg 64%
    01:00 +7°C° 0 mm 5 mps 736 mmHg 65%
    02:00 +7°C° 0 mm 5 mps 736 mmHg 67%
    03:00 +6°C° 0 mm 4 mps 736 mmHg 68%
    04:00 +6°C° 0 mm 4 mps 736 mmHg 69%
    05:00 +5°C° 0 mm 4 mps 737 mmHg 70%
    06:00 +6°C° 0 mm 4 mps 737 mmHg 66%
    07:00 +7°C° 0 mm 5 mps 737 mmHg 63%
    08:00 +7°C° 0 mm 5 mps 738 mmHg 60%
    09:00 +9°C° 0 mm 5 mps 738 mmHg 54%
    10:00 +12°C° 0 mm 5 mps 738 mmHg 48%
    11:00 +13°C° 0 mm 5 mps 738 mmHg 42%
    12:00 +14°C° 0 mm 5 mps 737 mmHg 39%
    13:00 +15°C° 0 mm 4 mps 737 mmHg 35%
    14:00 +17°C° 0 mm 3 mps 736 mmHg 32%
    15:00 +17°C° 0 mm 3 mps 736 mmHg 32%
    16:00 +17°C° 0 mm 3 mps 736 mmHg 32%
    17:00 +17°C° 0 mm 3 mps 736 mmHg 31%
    18:00 +16°C° 0 mm 3 mps 737 mmHg 33%
    19:00 +13°C° 0 mm 4 mps 737 mmHg 35%
    20:00 +12°C° 0 mm 4 mps 737 mmHg 37%
    21:00 +12°C° 0 mm 4 mps 738 mmHg 38%
    22:00 +11°C° 0 mm 4 mps 738 mmHg 38%
    23:00 +10°C° 0 mm 5 mps 738 mmHg 39%

    Day after tomorrow, 19 August, Sunday

    Time Temperature Precipitation Wind Pressure Humidity
    00:00 +9°C° 0 mm 5 mps 738 mmHg 41%
    01:00 +9°C° 0 mm 5 mps 737 mmHg 43%
    02:00 +9°C° 0 mm 5 mps 737 mmHg 45%
    03:00 +8°C° 0 mm 5 mps 737 mmHg 47%
    04:00 +8°C° 0 mm 5 mps 736 mmHg 49%
    05:00 +8°C° 0 mm 5 mps 736 mmHg 51%
    06:00 +9°C° 0 mm 6 mps 736 mmHg 49%
    07:00 +9°C° 0 mm 7 mps 737 mmHg 47%
    08:00 +10°C° 0 mm 7 mps 737 mmHg 45%
    09:00 +12°C° 0 mm 7 mps 737 mmHg 40%
    10:00 +15°C° 0 mm 7 mps 736 mmHg 34%
    11:00 +18°C° 0 mm 7 mps 736 mmHg 29%
    12:00 +20°C° 0 mm 7 mps 735 mmHg 28%
    13:00 +21°C° 0 mm 7 mps 734 mmHg 26%
    14:00 +23°C° 0 mm 7 mps 733 mmHg 25%
    15:00 +22°C° 0 mm 7 mps 733 mmHg 26%
    16:00 +22°C° 0 mm 6 mps 733 mmHg 27%
    17:00 +22°C° 0 mm 5 mps 732 mmHg 28%
    18:00 +21°C° 0 mm 5 mps 732 mmHg 30%
    19:00 +19°C° 0 mm 5 mps 732 mmHg 31%
    20:00 +17°C° 0 mm 5 mps 732 mmHg 33%
    21:00 +17°C° 0 mm 6 mps 732 mmHg 32%
    22:00 +17°C° 0 mm 7 mps 732 mmHg 30%
    23:00 +17°C° 0 mm 8 mps 731 mmHg 29%

    20 August, Monday

    Time Temperature Precipitation Wind Pressure Humidity
    00:00 +17°C° 0 mm 7 mps 731 mmHg 30%
    01:00 +17°C° 0 mm 6 mps 730 mmHg 31%
    02:00 +17°C° 0 mm 5 mps 730 mmHg 32%
    03:00 +17°C° 0 mm 4 mps 730 mmHg 36%
    04:00 +17°C° 0 mm 4 mps 730 mmHg 40%
    05:00 +17°C° 0 mm 4 mps 730 mmHg 45%
    06:00 +15°C° 0 mm 4 mps 730 mmHg 51%
    07:00 +15°C° 0 mm 5 mps 730 mmHg 58%
    08:00 +14°C° 0 mm 5 mps 731 mmHg 64%
    09:00 +16°C° 0 mm 5 mps 731 mmHg 56%
    10:00 +19°C° 0 mm 5 mps 731 mmHg 49%
    11:00 +20°C° 0 mm 5 mps 731 mmHg 41%
    12:00 +21°C° 0 mm 6 mps 730 mmHg 38%
    13:00 +21°C° 0 mm 7 mps 729 mmHg 34%
    14:00 +21°C° 0 mm 8 mps 729 mmHg 31%
    15:00 +20°C° 0 mm 8 mps 729 mmHg 32%
    16:00 +18°C° 0 mm 8 mps 729 mmHg 33%
    17:00 +17°C° 0 mm 7 mps 728 mmHg 34%
    18:00 +16°C° 0 mm 7 mps 729 mmHg 40%
    19:00 +14°C° 0 mm 6 mps 729 mmHg 46%
    20:00 +13°C° 0 mm 5 mps 730 mmHg 53%
    21:00 +13°C° 0 mm 5 mps 730 mmHg 61%
    22:00 +12°C° 0 mm 4 mps 729 mmHg 69%
    23:00 +11°C° 0 mm 4 mps 729 mmHg 77%

    21 August, Tuesday

    Time Temperature Precipitation Wind Pressure Humidity
    00:00 +11°C° 0 mm 4 mps 729 mmHg 80%
    01:00 +11°C° 0 mm 4 mps 729 mmHg 83%
    02:00 +10°C° 0 mm 4 mps 729 mmHg 87%
    03:00 +10°C° 0 mm 4 mps 729 mmHg 88%
    04:00 +9°C° 0 mm 5 mps 728 mmHg 88%
    05:00 +9°C° 0 mm 5 mps 728 mmHg 89%
    06:00 +9°C° 0 mm 6 mps 729 mmHg 86%
    07:00 +10°C° 0 mm 6 mps 729 mmHg 83%
    08:00 +10°C° 0 mm 6 mps 729 mmHg 80%
    09:00 +11°C° 0 mm 7 mps 729 mmHg 75%
    10:00 +12°C° 0 mm 7 mps 729 mmHg 70%
    11:00 +13°C° 0 mm 8 mps 729 mmHg 66%
    12:00 +13°C° 0 mm 8 mps 728 mmHg 63%
    13:00 +15°C° 0 mm 8 mps 728 mmHg 60%
    14:00 +16°C° 0 mm 8 mps 727 mmHg 57%
    15:00 +15°C° 0 mm 8 mps 728 mmHg 60%
    16:00 +15°C° 0 mm 8 mps 728 mmHg 62%
    17:00 +13°C° 0 mm 8 mps 728 mmHg 64%
    18:00 +12°C° 0 mm 8 mps 729 mmHg 68%
    19:00 +11°C° 0 mm 7 mps 730 mmHg 71%
    20:00 +11°C° 0 mm 7 mps 731 mmHg 74%
    21:00 +10°C° 0 mm 6 mps 731 mmHg 76%
    22:00 +10°C° 0 mm 6 mps 731 mmHg 78%
    23:00 +9°C° 0 mm 6 mps 731 mmHg 80%

    22 August, Wednesday

    Time Temperature Precipitation Wind Pressure Humidity
    00:00 +9°C° 0 mm 6 mps 731 mmHg 80%
    01:00 +8°C° 0 mm 6 mps 731 mmHg 81%
    02:00 +8°C° 0 mm 6 mps 731 mmHg 81%
    03:00 +8°C° 0 mm 6 mps 731 mmHg 80%
    04:00 +7°C° 0 mm 5 mps 731 mmHg 79%
    05:00 +7°C° 0 mm 5 mps 731 mmHg 78%
    06:00 +7°C° 0 mm 6 mps 732 mmHg 75%
    07:00 +7°C° 0 mm 6 mps 733 mmHg 73%
    08:00 +7°C° 0 mm 6 mps 733 mmHg 70%
    09:00 +9°C° 0 mm 6 mps 733 mmHg 63%
    10:00 +10°C° 0 mm 6 mps 733 mmHg 56%
    11:00 +13°C° 0 mm 6 mps 733 mmHg 49%
    12:00 +13°C° 0 mm 6 mps 733 mmHg 47%
    13:00 +14°C° 0 mm 6 mps 733 mmHg 46%
    14:00 +14°C° 0 mm 6 mps 732 mmHg 45%
    15:00 +14°C° 0 mm 6 mps 733 mmHg 44%
    16:00 +14°C° 0 mm 6 mps 733 mmHg 44%
    17:00 +14°C° 0 mm 5 mps 734 mmHg 43%
    18:00 +13°C° 0 mm 5 mps 734 mmHg 45%
    19:00 +12°C° 0 mm 5 mps 735 mmHg 46%
    20:00 +11°C° 0 mm 4 mps 736 mmHg 48%
    21:00 +10°C° 0 mm 4 mps 736 mmHg 52%
    22:00 +9°C° 0 mm 5 mps 736 mmHg 57%
    23:00 +8°C° 0 mm 5 mps 736 mmHg 61%
    Show more